Zurück zum Katalog

THORAD AGENA D DEB

AktivLEO
NORAD 4720·DEBRIS·🇺🇸 United States

Gestartet Apr 8, 1970 von Vandenberg Space Force Base

Loading…

Nächste Überflüge (nächste 24 Stunden)

TLE

AktuellSource: Space-Track

Epoche: Sep 14, 2026, 08:42 UTC

1 04720U 70025CE  26257.36280205  .00000526  00000-0  34718-3 0  9994
2 04720 100.0543 227.3503 0084842  65.8077 295.1927 14.05183981862965

Verfolge THORAD AGENA D DEB in Echtzeit mit AllMySat

Download on the App Store